Lyndonville, VT

1:55 PM EDT on September 20, 2017 (GMT -0400)
Lyndonville

Weather History for KCDA - June, 2014

Change the Weather History Date:

Monday, June 9, 2014

  Actual Average (K1V4) Record (K1V4)
Temperature  
Mean Temperature 68 °F -  
Max Temperature 80 °F 70 °F 95 °F (1933)
Min Temperature 56 °F 47 °F 33 °F (1983)
Cooling Degree Days 3    
Growing Degree Days 18 (Base 50)    
Moisture  
Dew Point 53 °F    
Average Humidity 58    
Maximum Humidity 88    
Minimum Humidity 33    
Precipitation  
Precipitation 0.00 in - - ()
Sea Level Pressure  
Sea Level Pressure 29.97 in    
Wind  
Wind Speed 3 mph (North)    
Max Wind Speed 9 mph    
Max Gust Speed -    
Visibility 10 miles    
Events      
Averages and records for this station are not official NWS values.
T = Trace of Precipitation, MM = Missing Value Source: NWS Daily Summary

Daily Weather History Graph

Daily Weather History Graph

Search for Another Location

Airport or City:

Trip Planner

Search our weather history database for the weather conditions in past years. The results will help you decide how hot, cold, wet, or windy it might be!

Date:

Astronomy

Jun. 09, 2014 Rise Set
Actual Time 5:03 AM EDT 8:31 PM EDT
Civil Twilight 4:26 AM EDT 9:08 PM EDT
Nautical Twilight 3:38 AM EDT 9:56 PM EDT
Astronomical Twilight 2:36 AM EDT 10:58 PM EDT
Moon 4:42 PM EDT (6/9) 2:37 AM EDT (6/9)
Length of Visible Light 16h 41m
Length of Day
15h 28m
Waxing Gibbous, 85% of the Moon is Illuminated
Jun 9
Waxing Gibbous
Jun 13
Full
Jun 19
Last Quarter
Jun 27
New
Jul 5
First Quarter

Hourly Weather History & Observations

Time (EDT) Temp. Dew Point Humidity Pressure Visibility Wind Dir Wind Speed Gust Speed Precip Events Conditions
12:15 AM 63.3 °F 54.5 °F 73% 29.94 in 10.0 mi ENE 3.5 mph - N/A   Clear
12:35 AM 61.9 °F 54.1 °F 76% 29.94 in 10.0 mi Calm Calm - N/A   Clear
12:55 AM 61.7 °F 53.6 °F 75% 29.94 in 10.0 mi Calm Calm - N/A   Clear
1:15 AM 61.7 °F 53.6 °F 75% 29.94 in 10.0 mi Calm Calm - N/A   Clear
1:35 AM 60.1 °F 53.6 °F 79% 29.94 in 10.0 mi Calm Calm - N/A   Clear
1:55 AM 59.4 °F 53.1 °F 80% 29.94 in 10.0 mi Calm Calm - N/A   Clear
2:15 AM 59.5 °F 52.9 °F 79% 29.93 in 10.0 mi Calm Calm - N/A   Clear
2:35 AM 58.6 °F 53.1 °F 82% 29.93 in 10.0 mi Calm Calm - N/A   Clear
2:55 AM 59.0 °F 52.3 °F 79% 29.93 in 10.0 mi Calm Calm - N/A   Clear
3:15 AM 58.5 °F 52.7 °F 81% 29.93 in 10.0 mi Calm Calm - N/A   Clear
3:35 AM 58.1 °F 52.9 °F 83% 29.93 in 10.0 mi Calm Calm - N/A   Clear
3:55 AM 58.5 °F 52.7 °F 81% 29.93 in 10.0 mi Calm Calm - N/A   Clear
4:15 AM 57.0 °F 52.0 °F 83% 29.93 in 10.0 mi ESE 3.5 mph - N/A   Clear
4:35 AM 56.5 °F 52.7 °F 87% 29.94 in 10.0 mi Calm Calm - N/A   Clear
4:55 AM 56.8 °F 53.1 °F 87% 29.94 in 10.0 mi Calm Calm - N/A   Clear
5:15 AM 57.2 °F 52.9 °F 85% 29.95 in 10.0 mi ENE 4.6 mph - N/A   Clear
5:35 AM 57.0 °F 53.6 °F 88% 29.95 in 10.0 mi Calm Calm - N/A   Clear
5:55 AM 57.4 °F 53.6 °F 87% 29.96 in 10.0 mi SSW 3.5 mph - N/A   Clear
6:15 AM 57.4 °F 53.6 °F 87% 29.97 in 10.0 mi Calm Calm - N/A   Clear
6:35 AM 59.0 °F 54.1 °F 84% 29.97 in 10.0 mi Calm Calm - N/A   Clear
6:55 AM 60.4 °F 55.0 °F 82% 29.98 in 10.0 mi Calm Calm - N/A   Clear
7:15 AM 59.9 °F 54.7 °F 83% 29.98 in 10.0 mi Calm Calm - N/A   Clear
7:35 AM 60.4 °F 55.6 °F 84% 29.98 in 10.0 mi Calm Calm - N/A   Clear
7:55 AM 62.4 °F 56.1 °F 80% 29.98 in 10.0 mi Calm Calm - N/A   Clear
8:35 AM 66.7 °F 55.6 °F 67% 30.00 in 10.0 mi Calm Calm - N/A   Scattered Clouds
8:55 AM 67.6 °F 55.9 °F 66% 30.00 in 10.0 mi Calm Calm - N/A   Clear
9:15 AM 68.5 °F 56.1 °F 64% 29.99 in 10.0 mi Calm Calm - N/A   Clear
9:35 AM 70.0 °F 56.3 °F 62% 29.99 in 10.0 mi Calm Calm - N/A   Clear
9:55 AM 72.0 °F 58.3 °F 62% 30.00 in 10.0 mi West 3.5 mph - N/A   Clear
10:15 AM 74.7 °F 52.5 °F 46% 29.99 in 10.0 mi NNE 8.1 mph - N/A   Clear
10:35 AM 75.2 °F 53.8 °F 47% 30.00 in 10.0 mi NNW 5.8 mph - N/A   Clear
10:55 AM 77.0 °F 53.4 °F 44% 29.99 in 10.0 mi NNE 4.6 mph - N/A   Clear
11:15 AM 78.3 °F 53.4 °F 42% 29.99 in 10.0 mi NNE 8.1 mph - N/A   Clear
11:35 AM 77.9 °F 52.0 °F 40% 29.98 in 10.0 mi NNW 5.8 mph - N/A   Clear
11:55 AM 78.8 °F 53.8 °F 42% 29.98 in 10.0 mi North 6.9 mph - N/A   Clear
12:15 PM 78.6 °F 51.1 °F 38% 29.97 in 10.0 mi NNE 4.6 mph - N/A   Clear
12:35 PM 79.0 °F 53.2 °F 41% 29.97 in 10.0 mi North 4.6 mph - N/A   Clear
12:55 PM 79.9 °F 53.6 °F 40% 29.97 in 10.0 mi Calm Calm - N/A   Clear
1:15 PM 80.6 °F 52.3 °F 37% 29.97 in 10.0 mi NW 4.6 mph - N/A   Clear
1:35 PM 80.2 °F 51.1 °F 36% 29.97 in 10.0 mi WNW 4.6 mph - N/A   Clear
1:55 PM 80.8 °F 50.5 °F 35% 29.96 in 10.0 mi North 8.1 mph - N/A   Scattered Clouds
2:15 PM 80.8 °F 49.5 °F 33% 29.96 in 10.0 mi NNE 5.8 mph - N/A   Clear
2:35 PM 80.8 °F 52.5 °F 37% 29.96 in 10.0 mi NNW 9.2 mph - N/A   Scattered Clouds
3:35 PM 80.8 °F 51.6 °F 36% 29.96 in 10.0 mi WNW 5.8 mph - N/A   Clear
3:55 PM 80.8 °F 50.7 °F 35% 29.96 in 10.0 mi NNW 4.6 mph - N/A   Clear
4:15 PM 78.3 °F 48.4 °F 35% 29.95 in 10.0 mi NNW 5.8 mph - N/A   Clear
4:35 PM 79.0 °F 52.7 °F 40% 29.95 in 10.0 mi NNW 6.9 mph - N/A   Clear
4:55 PM 79.0 °F 53.8 °F 42% 29.95 in 10.0 mi NNW 8.1 mph - N/A   Clear
5:15 PM 79.2 °F 54.1 °F 42% 29.95 in 10.0 mi NNW 8.1 mph - N/A   Clear
5:35 PM 79.0 °F 53.6 °F 41% 29.95 in 10.0 mi NW 8.1 mph - N/A   Clear
5:55 PM 79.0 °F 52.7 °F 40% 29.95 in 10.0 mi NNW 8.1 mph - N/A   Clear
6:15 PM 78.4 °F 52.0 °F 40% 29.96 in 10.0 mi NNW 6.9 mph - N/A   Mostly Cloudy
6:35 PM 77.2 °F 52.2 °F 42% 29.96 in 10.0 mi NNW 5.8 mph - N/A   Mostly Cloudy
6:55 PM 75.6 °F 52.0 °F 44% 29.96 in 10.0 mi North 4.6 mph - N/A   Scattered Clouds
7:15 PM 74.8 °F 52.7 °F 46% 29.96 in 10.0 mi North 3.5 mph - N/A   Scattered Clouds
7:35 PM 75.7 °F 52.7 °F 45% 29.97 in 10.0 mi North 4.6 mph - N/A   Mostly Cloudy
7:55 PM 74.7 °F 52.9 °F 46% 29.97 in 10.0 mi NNE 4.6 mph - N/A   Overcast
8:15 PM 72.5 °F 53.8 °F 52% 29.97 in 10.0 mi NNE 4.6 mph - N/A   Overcast
8:35 PM 71.6 °F 51.8 °F 50% 29.97 in 10.0 mi North 8.1 mph - N/A   Overcast
8:55 PM 71.6 °F 51.3 °F 49% 29.98 in 10.0 mi NNE 8.1 mph - N/A   Mostly Cloudy
9:15 PM 71.6 °F 51.1 °F 48% 29.98 in 10.0 mi North 6.9 mph - N/A   Mostly Cloudy
9:35 PM 70.3 °F 51.3 °F 51% 29.98 in 10.0 mi North 6.9 mph - N/A   Scattered Clouds
9:55 PM 69.8 °F 51.6 °F 52% 29.99 in 10.0 mi NNE 4.6 mph - N/A   Scattered Clouds
10:15 PM 69.4 °F 51.1 °F 52% 29.98 in 10.0 mi North 3.5 mph - N/A   Scattered Clouds
10:35 PM 70.3 °F 50.5 °F 49% 29.99 in 10.0 mi North 3.5 mph - N/A   Mostly Cloudy
10:55 PM 69.1 °F 50.9 °F 52% 29.99 in 10.0 mi NNE 5.8 mph - N/A   Overcast
11:15 PM 69.4 °F 50.2 °F 50% 29.99 in 10.0 mi NNE 5.8 mph - N/A   Scattered Clouds
11:35 PM 68.7 °F 51.1 °F 53% 30.00 in 10.0 mi NNE 4.6 mph - N/A   Mostly Cloudy
11:55 PM 69.1 °F 50.2 °F 51% 29.99 in 10.0 mi North 3.5 mph - N/A   Overcast